Terminal Aerodrome Forecast
Issued by NWS Paducah, KY

Home | Current Version | Previous Version | Text Only | Print | Product List | Glossary On
Versions: 1 2 3 4 5 6 7 8 9 10 11 12 13 14 15 16
000
FTUS43 KPAH 102320
TAFPAH
TAF
KPAH 102320Z 1100/1124 VRB04KT P6SM SCT250
     FM111400 21007KT P6SM SCT100
     FM111800 23013G21KT P6SM BKN250
     FM112300 28012G20KT P6SM SCT025=

USA.gov is the U.S. government's official web portal to all federal, state and local government web resources and services.